Location: Dompnac
(44.5644°N, 4.1026°E)
Time: 11:20:03
(UTC+00:00)

SJ-6B - Pass Details

Date: 19 September 2020
Orbit: 511 x 580 km, 97.6° (Epoch: 30 October)

Event Time Altitude Azimuth Distance (km) Brightness Sun altitude
Exits shadow 19:16:43 33° 137° (SE) 881 3.4 -16.7°
Maximum altitude 19:18:09 57° 74° (ENE) 612 2.7 -16.9°
Drops below altitude 10° 19:21:51 10° 356° (N) 1,753 5.7 -17.5°
Sets 19:23:59 0° 352° (N) 2,652 6.7 -17.9°
